Dauntless Aviation
Airports North America United States Texas
63TE

FLYING S RANCH AIRPORT

KENNARD, TX, USA

Airport Info
Suggest Updated Information for this Airport

Location

Latitude / Longitude: 35°35'14"N / 77°22'21"W
  35°35.2333'N / 77°22.3667'W
  31.3535 / -95.2058
Elevation: 370 ft. (estimated)
Variation: 06E (1985)
From city: 01 miles SW of KENNARD, TX

Operations

Facility use: Private
Sectional chart: HOUSTON
Control tower: no
Boundary ARTCC: HOUSTON
FSS: MONTGOMERY COUNTY [1-800-WX-BRIEF]
Segmented circle: no

Communications

Nearby radio navigation aids

VOR radial/distance VOR name Freq Var
LFK 295oT/27.6 LUFKIN VORTAC 112.10 05E
 
NDB name Hdg/Dist Freq Var ID
NADOS 252oT/26.1 253 05E OC
CHEROKEE COUNTY 179oT/31.0 263 05E JSO
NACOGDOCHES 235oT/31.1 391 05E GXD
PALESTINE 135oT/36.0 375 04E PSN

Services

Runway Information

Runway 14/32

Dimensions: 2000 x 100 ft.
Surface: NATURAL SOIL,NO SPECIAL SURFACE TREATMENT
 
Runway 14
Runway 32
 

Additional Remarks

Instrument Procedures

No published instrument procedures available
Topographic chart at:
Satellite photo at:
Airport distance calculator
From:
Weather Reports

METAR

KDKR
10.5nm SW
KDKR 092250Z AUTO 00000KT 10SM CLR 06/M02 A3054 RMK AO2
KLFK
24.5nm E
KLFK 092253Z AUTO 00000KT 10SM OVC075 06/M03 A3052 RMK AO2 SLP335 T00611033
KOCH
28.1nm NE
KOCH 092255Z 00000KT 10SM CLR 07/M04 A3051 RMK AO1
KJSO
30.8nm NW
KJSO 092255Z AUTO 00000KT 10SM CLR 06/M06 A3052 RMK AO2 T00591062
KPSN
36.1nm NW
KPSN 092255Z AUTO 03003KT 10SM CLR 07/M06 A3052 RMK AO2 T00701060

TAF

KLFK
24.5nm E
KLFK 091720Z 0918/1018 05007KT P6SM SCT090 TEMPO 0918/0922 BKN070 FM092200 05004KT P6SM SCT070 TEMPO 0922/1002 BKN060 FM100200 00000KT P6SM BKN060 FM101500 11006KT P6SM SCT060 SCT250
Safelog

 

Dauntless Aviation

© 2007-2016 Dauntless Aviation, all rights reserved
Information provided via PilotNav comes from a variety of official and unofficial data sources. As errors are possible, do not use PilotNav for primary flight planning purposes. Verify any information that you receive via PilotNav with current and canonical charts and other official documents. The material in this database is subject to database copyrights held by Dauntless Aviation and may not be copied without the express permission of Dauntless Aviation - licenses for use of part of all of this data are available for purchase; enquire via the Dauntless Aviation helpdesk. A number of mechanisms and markers exist in the database to protect against and identify infringement / copyright. Automated queries against this website are stictly prohibited, and all activity is logged and analyzed.